Location: Sluknov
(51.0170°N, 14.4670°E)
Time: 10:06:46
(UTC+01:00)

ISS - Pass Details

Date: 20 February 2026
Orbit: 416 x 426 km, 51.6° (Epoch: 9 March)

Event Time Altitude Azimuth Distance (km) Brightness Sun altitude
Exits shadow 04:58:11 62° 151° (SSE) 474 -3.5 -20.7°
Drops below altitude 10° 05:01:25 10° 79° (E) 1,495 0.3 -20.2°
Sets 05:03:31 0° 76° (ENE) 2,359 1.6 -19.8°
